EZE6AX EGNM-EGPB

Flight info

Callsign EZE6AX
Flight time 1h 9m
Altitude 30000
Route POL DCT NELSA DCT IDKOL P18 ADN/N0379F190 Y905 BEKET DCT RAVDI
Aircraft E190/M-SDE3GILORVW/S

Departure

Time 2026-04-24 13:57
Airport Leeds Bradford Airport (EGNM)

Arrival

Time 2026-04-24 15:06
Airport Sumburgh Airport (EGPB)
Time Latitude Longitude Altitude Speed Heading
2026-04-24 13:43 53.86879 -1.65548 664 ft 0 kts
2026-04-24 13:47 53.86876 -1.65548 664 ft 3 kts
2026-04-24 13:48 53.86851 -1.65549 663 ft 2 kts
2026-04-24 13:48 53.86829 -1.65548 663 ft 4 kts 338°
2026-04-24 13:48 53.86815 -1.65524 662 ft 3 kts 271°
2026-04-24 13:48 53.86814 -1.65489 662 ft 0 kts 271°
2026-04-24 13:51 53.86814 -1.65500 662 ft 2 kts 271°
2026-04-24 13:52 53.86815 -1.65530 662 ft 5 kts 271°
2026-04-24 13:52 53.86816 -1.65615 663 ft 10 kts 271°
2026-04-24 13:52 53.86813 -1.65756 664 ft 14 kts 260°
2026-04-24 13:52 53.86814 -1.65936 664 ft 17 kts 272°
2026-04-24 13:53 53.86841 -1.66126 665 ft 16 kts 312°
2026-04-24 13:53 53.86929 -1.66266 665 ft 17 kts 314°
2026-04-24 13:53 53.86991 -1.66431 671 ft 17 kts 291°
2026-04-24 13:53 53.86972 -1.66554 671 ft 11 kts 240°
2026-04-24 13:54 53.86976 -1.66641 670 ft 6 kts 311°
2026-04-24 13:54 53.87013 -1.66706 675 ft 9 kts 314°
2026-04-24 13:54 53.87068 -1.66796 679 ft 14 kts 316°
2026-04-24 13:54 53.87153 -1.66921 683 ft 18 kts 320°
2026-04-24 13:55 53.87275 -1.66997 687 ft 22 kts
2026-04-24 13:55 53.87397 -1.67077 688 ft 21 kts 274°
2026-04-24 13:55 53.87278 -1.67113 685 ft 19 kts 137°
2026-04-24 13:55 53.87264 -1.67091 686 ft 0 kts 137°
2026-04-24 13:56 53.87263 -1.67090 686 ft 1 kts 137°
2026-04-24 13:56 53.87119 -1.66868 681 ft 64 kts 137°
2026-04-24 13:56 53.86610 -1.66081 666 ft 131 kts 138°
2026-04-24 13:57 53.85824 -1.64853 878 ft 170 kts 136°
2026-04-24 13:57 53.84901 -1.63393 1591 ft 191 kts 137°
2026-04-24 13:57 53.83865 -1.61855 2200 ft 205 kts 139°
2026-04-24 13:57 53.82752 -1.60236 2792 ft 217 kts 139°
2026-04-24 13:58 53.81588 -1.58505 3432 ft 226 kts 139°
2026-04-24 13:58 53.80416 -1.56695 4137 ft 231 kts 133°
2026-04-24 13:58 53.79493 -1.54454 4830 ft 235 kts 126°
2026-04-24 13:58 53.78444 -1.52363 5497 ft 238 kts 142°
2026-04-24 13:59 53.76904 -1.51289 6204 ft 239 kts 167°
2026-04-24 13:59 53.75248 -1.50766 6859 ft 249 kts 174°
2026-04-24 13:59 53.73465 -1.51078 7068 ft 271 kts 201°
2026-04-24 13:59 53.71960 -1.52970 7051 ft 275 kts 235°
2026-04-24 14:00 53.71310 -1.55887 7069 ft 276 kts 267°
2026-04-24 14:00 53.71532 -1.59096 7121 ft 276 kts 282°
2026-04-24 14:00 53.71946 -1.62273 7131 ft 278 kts 282°
2026-04-24 14:00 53.72339 -1.65481 6986 ft 279 kts 281°
2026-04-24 14:01 53.72660 -1.68687 7660 ft 278 kts 277°
2026-04-24 14:01 53.72839 -1.71934 8539 ft 278 kts 275°
2026-04-24 14:01 53.72991 -1.75199 9392 ft 280 kts 276°
2026-04-24 14:01 53.73202 -1.78485 10263 ft 282 kts 277°
2026-04-24 14:02 53.73475 -1.81835 10775 ft 296 kts 279°
2026-04-24 14:02 53.73829 -1.85357 11304 ft 309 kts 281°
2026-04-24 14:02 53.74230 -1.88955 12067 ft 314 kts 281°
2026-04-24 14:02 53.74664 -1.92589 12916 ft 318 kts 282°
2026-04-24 14:03 53.75152 -1.96254 13776 ft 322 kts 283°
2026-04-24 14:03 53.75699 -1.99938 14614 ft 326 kts 284°
2026-04-24 14:03 53.76350 -2.03639 15417 ft 331 kts 292°
2026-04-24 14:03 53.77588 -2.06925 16204 ft 336 kts 313°
2026-04-24 14:04 53.79367 -2.09503 16977 ft 340 kts 321°
2026-04-24 14:04 53.81246 -2.11979 17715 ft 345 kts 322°
2026-04-24 14:04 53.83167 -2.14455 18468 ft 349 kts 323°
2026-04-24 14:04 53.85334 -2.16365 19115 ft 356 kts 343°
2026-04-24 14:05 53.87794 -2.16765 19811 ft 359 kts
2026-04-24 14:05 53.90218 -2.15696 20458 ft 364 kts 22°
2026-04-24 14:05 53.92540 -2.13942 21059 ft 368 kts 24°
2026-04-24 14:05 53.94863 -2.12069 21653 ft 371 kts 25°
2026-04-24 14:06 53.97228 -2.10118 22258 ft 375 kts 25°
2026-04-24 14:06 53.99581 -2.08155 22831 ft 378 kts 26°
2026-04-24 14:06 54.01946 -2.06159 23410 ft 382 kts 26°
2026-04-24 14:06 54.04296 -2.04146 23970 ft 385 kts 26°
2026-04-24 14:07 54.06687 -2.02070 24531 ft 387 kts 26°
2026-04-24 14:07 54.09080 -1.99962 25106 ft 387 kts 26°
2026-04-24 14:07 54.11613 -1.98424 25653 ft 387 kts 11°
2026-04-24 14:07 54.14306 -1.97665 26215 ft 388 kts
2026-04-24 14:08 54.16948 -1.96991 26695 ft 391 kts
2026-04-24 14:08 54.19681 -1.96330 27198 ft 393 kts
2026-04-24 14:08 54.22350 -1.95601 27654 ft 395 kts
2026-04-24 14:08 54.25066 -1.94794 28120 ft 397 kts 10°
2026-04-24 14:09 54.27822 -1.93942 28594 ft 399 kts 10°
2026-04-24 14:09 54.30558 -1.93088 29040 ft 400 kts 11°
2026-04-24 14:09 54.33271 -1.92239 29445 ft 402 kts 11°
2026-04-24 14:09 54.36029 -1.91377 29857 ft 404 kts 11°
2026-04-24 14:10 54.38801 -1.90507 30270 ft 405 kts 11°
2026-04-24 14:10 54.41584 -1.89634 30433 ft 412 kts 11°
2026-04-24 14:10 54.47375 -1.87817 30290 ft 436 kts 11°
2026-04-24 14:11 54.53426 -1.85919 30294 ft 447 kts 11°
2026-04-24 14:12 54.62593 -1.83027 30309 ft 447 kts 11°
2026-04-24 14:12 54.68708 -1.81085 30307 ft 446 kts 11°
2026-04-24 14:13 54.74815 -1.79149 30313 ft 446 kts 11°
2026-04-24 14:13 54.80913 -1.77203 30314 ft 445 kts 11°
2026-04-24 14:14 54.87003 -1.75256 30315 ft 445 kts 11°
2026-04-24 14:14 54.96137 -1.72323 30322 ft 445 kts 11°
2026-04-24 14:15 55.02218 -1.70362 30317 ft 445 kts 11°
2026-04-24 14:15 55.08300 -1.68393 30319 ft 444 kts 11°
2026-04-24 14:16 55.14375 -1.66417 30321 ft 444 kts 11°
2026-04-24 14:17 55.23441 -1.63465 30331 ft 444 kts 11°
2026-04-24 14:17 55.32552 -1.60490 30332 ft 444 kts 11°
2026-04-24 14:18 55.38640 -1.58492 30323 ft 445 kts 11°
2026-04-24 14:18 55.44757 -1.56904 30330 ft 445 kts 360°
2026-04-24 14:19 55.50873 -1.58659 30333 ft 447 kts 349°
2026-04-24 14:19 55.56959 -1.60920 30330 ft 447 kts 349°
2026-04-24 14:20 55.63046 -1.63169 30327 ft 447 kts 349°
2026-04-24 14:20 55.69141 -1.65415 30323 ft 447 kts 349°
2026-04-24 14:21 55.75248 -1.67630 30325 ft 448 kts 349°
2026-04-24 14:21 55.81366 -1.69815 30327 ft 449 kts 349°
2026-04-24 14:22 55.87502 -1.72023 30330 ft 450 kts 349°
2026-04-24 14:23 55.96730 -1.75386 30328 ft 452 kts 349°
2026-04-24 14:23 56.02842 -1.77647 30331 ft 452 kts 349°
2026-04-24 14:24 56.09006 -1.79930 30331 ft 452 kts 349°
2026-04-24 14:24 56.15165 -1.82218 30329 ft 452 kts 349°
2026-04-24 14:25 56.20286 -1.84127 30331 ft 452 kts 349°
2026-04-24 14:25 56.27491 -1.86822 30329 ft 452 kts 349°
2026-04-24 14:26 56.33647 -1.89129 30329 ft 452 kts 349°
2026-04-24 14:26 56.39804 -1.91448 30325 ft 452 kts 348°
2026-04-24 14:27 56.45960 -1.93773 30328 ft 452 kts 348°
2026-04-24 14:27 56.52125 -1.96109 30320 ft 453 kts 348°
2026-04-24 14:28 56.58286 -1.98452 30328 ft 452 kts 348°
2026-04-24 14:28 56.64446 -2.00803 30321 ft 453 kts 348°
2026-04-24 14:29 56.70612 -2.03164 30329 ft 453 kts 348°
2026-04-24 14:29 56.76780 -2.05530 30325 ft 453 kts 348°
2026-04-24 14:30 56.81902 -2.07501 30327 ft 453 kts 348°
2026-04-24 14:30 56.88584 -2.10092 30323 ft 453 kts 348°
2026-04-24 14:31 56.94742 -2.12487 30319 ft 453 kts 347°
2026-04-24 14:31 57.00914 -2.14891 30322 ft 453 kts 347°
2026-04-24 14:32 57.07078 -2.17301 30313 ft 453 kts 347°
2026-04-24 14:32 57.13244 -2.19720 30327 ft 453 kts 347°
2026-04-24 14:33 57.19407 -2.22149 30329 ft 453 kts 347°
2026-04-24 14:33 57.25572 -2.24539 30330 ft 453 kts 350°
2026-04-24 14:33 57.28760 -2.24731 30330 ft 455 kts
2026-04-24 14:34 57.31791 -2.23323 30333 ft 459 kts 21°
2026-04-24 14:34 57.34559 -2.20363 30338 ft 462 kts 37°
2026-04-24 14:34 57.36941 -2.16365 30359 ft 463 kts 42°
2026-04-24 14:35 57.40783 -2.09288 30302 ft 465 kts 43°
2026-04-24 14:35 57.46129 -1.99489 30311 ft 465 kts 42°
2026-04-24 14:36 57.50002 -1.92412 30312 ft 466 kts 42°
2026-04-24 14:36 57.54681 -1.84067 30310 ft 464 kts 34°
2026-04-24 14:36 57.57507 -1.81331 30343 ft 457 kts 15°
2026-04-24 14:37 57.60565 -1.79825 30332 ft 455 kts 10°
2026-04-24 14:37 57.66837 -1.78541 30308 ft 453 kts
2026-04-24 14:38 57.73126 -1.77345 30319 ft 455 kts
2026-04-24 14:38 57.79431 -1.76078 30315 ft 456 kts
2026-04-24 14:39 57.85749 -1.74812 30313 ft 457 kts
2026-04-24 14:39 57.92036 -1.73551 30322 ft 458 kts
2026-04-24 14:40 57.98367 -1.72276 30319 ft 458 kts
2026-04-24 14:40 58.04712 -1.70993 30321 ft 458 kts
2026-04-24 14:41 58.11049 -1.69708 30319 ft 458 kts
2026-04-24 14:41 58.17386 -1.68418 30322 ft 458 kts
2026-04-24 14:42 58.23729 -1.67123 30317 ft 458 kts
2026-04-24 14:42 58.30071 -1.65822 30319 ft 458 kts
2026-04-24 14:43 58.36403 -1.64519 30314 ft 458 kts
2026-04-24 14:43 58.42736 -1.63144 30317 ft 458 kts
2026-04-24 14:44 58.49066 -1.61630 30320 ft 459 kts
2026-04-24 14:44 58.55401 -1.60131 30322 ft 459 kts
2026-04-24 14:45 58.61739 -1.58637 30319 ft 459 kts
2026-04-24 14:45 58.68035 -1.57149 30318 ft 458 kts
2026-04-24 14:46 58.74402 -1.55638 30319 ft 458 kts
2026-04-24 14:46 58.80690 -1.54141 30317 ft 458 kts
2026-04-24 14:47 58.87015 -1.52629 30170 ft 455 kts
2026-04-24 14:47 58.90089 -1.51881 29936 ft 434 kts
2026-04-24 14:47 58.92997 -1.51187 29957 ft 411 kts
2026-04-24 14:47 58.95801 -1.50542 29513 ft 401 kts
2026-04-24 14:48 58.98565 -1.49917 28897 ft 400 kts
2026-04-24 14:48 59.01338 -1.49289 28364 ft 403 kts
2026-04-24 14:48 59.04139 -1.48645 27798 ft 406 kts
2026-04-24 14:48 59.06937 -1.47994 27250 ft 403 kts
2026-04-24 14:49 59.09693 -1.47343 26680 ft 396 kts
2026-04-24 14:49 59.12419 -1.46703 26120 ft 393 kts
2026-04-24 14:49 59.15127 -1.46070 25717 ft 390 kts
2026-04-24 14:49 59.17833 -1.45440 25106 ft 394 kts
2026-04-24 14:50 59.20546 -1.44804 24583 ft 390 kts
2026-04-24 14:50 59.23229 -1.44169 24022 ft 387 kts
2026-04-24 14:50 59.25881 -1.43542 23443 ft 381 kts
2026-04-24 14:50 59.28491 -1.42920 22962 ft 374 kts
2026-04-24 14:51 59.31057 -1.42315 22432 ft 371 kts
2026-04-24 14:51 59.33611 -1.41713 21950 ft 368 kts
2026-04-24 14:51 59.36150 -1.41113 21452 ft 367 kts
2026-04-24 14:51 59.38680 -1.40515 20938 ft 366 kts
2026-04-24 14:52 59.41200 -1.39915 20450 ft 363 kts
2026-04-24 14:52 59.43690 -1.39320 19993 ft 360 kts
2026-04-24 14:52 59.46176 -1.38728 19447 ft 359 kts
2026-04-24 14:52 59.48643 -1.38140 18963 ft 355 kts
2026-04-24 14:53 59.51034 -1.37098 18426 ft 360 kts 11°
2026-04-24 14:53 59.53397 -1.35502 17991 ft 356 kts 14°
2026-04-24 14:53 59.55709 -1.33829 17557 ft 353 kts 13°
2026-04-24 14:53 59.58018 -1.32179 17049 ft 353 kts 13°
2026-04-24 14:54 59.60322 -1.30542 16604 ft 350 kts 13°
2026-04-24 14:54 59.62602 -1.28934 16135 ft 348 kts 13°
2026-04-24 14:54 59.64874 -1.27334 15669 ft 345 kts 13°
2026-04-24 14:54 59.67137 -1.25866 15201 ft 337 kts
2026-04-24 14:55 59.68654 -1.25593 14852 ft 325 kts 351°
2026-04-24 14:55 59.71586 -1.26189 14352 ft 311 kts 347°
2026-04-24 14:55 59.73755 -1.26146 13789 ft 320 kts
2026-04-24 14:55 59.75846 -1.24397 12854 ft 340 kts 28°
2026-04-24 14:56 59.77506 -1.20935 12200 ft 353 kts 53°
2026-04-24 14:56 59.78542 -1.16477 11583 ft 358 kts 68°
2026-04-24 14:56 59.78982 -1.11607 10962 ft 360 kts 83°
2026-04-24 14:56 59.79109 -1.06655 10363 ft 358 kts 85°
2026-04-24 14:57 59.79229 -1.01729 9726 ft 356 kts 84°
2026-04-24 14:57 59.79343 -0.96819 9088 ft 354 kts 85°
2026-04-24 14:57 59.79450 -0.92040 8632 ft 336 kts 85°
2026-04-24 14:57 59.79544 -0.87546 8158 ft 317 kts 85°
2026-04-24 14:58 59.79624 -0.83292 7691 ft 301 kts 85°
2026-04-24 14:58 59.79695 -0.79228 7242 ft 288 kts 85°
2026-04-24 14:58 59.79839 -0.75353 6784 ft 274 kts 72°
2026-04-24 14:58 59.80645 -0.72146 6313 ft 251 kts 40°
2026-04-24 14:59 59.82033 -0.70374 5845 ft 229 kts
2026-04-24 14:59 59.83517 -0.70462 5449 ft 207 kts 333°
2026-04-24 14:59 59.84577 -0.72206 5071 ft 199 kts 301°
2026-04-24 14:59 59.85271 -0.74605 4703 ft 201 kts 300°
2026-04-24 15:00 59.85961 -0.76983 4344 ft 202 kts 300°
2026-04-24 15:00 59.86662 -0.79413 3982 ft 203 kts 300°
2026-04-24 15:00 59.87351 -0.81823 3618 ft 197 kts 300°
2026-04-24 15:00 59.88019 -0.84162 3230 ft 192 kts 300°
2026-04-24 15:01 59.88639 -0.86487 2843 ft 188 kts 292°
2026-04-24 15:01 59.89108 -0.88866 2448 ft 186 kts 295°
2026-04-24 15:01 59.89667 -0.91172 2057 ft 184 kts 295°
2026-04-24 15:01 59.90029 -0.93445 2152 ft 167 kts 273°
2026-04-24 15:02 59.89884 -0.95791 2220 ft 174 kts 262°
2026-04-24 15:02 59.89747 -0.98186 2277 ft 174 kts 269°
2026-04-24 15:02 59.89661 -1.00611 2231 ft 178 kts 266°
2026-04-24 15:02 59.89509 -1.03118 1888 ft 182 kts 265°
2026-04-24 15:03 59.89377 -1.05499 1930 ft 167 kts 266°
2026-04-24 15:03 59.89267 -1.07685 1900 ft 151 kts 266°
2026-04-24 15:03 59.89158 -1.09617 1862 ft 131 kts 266°
2026-04-24 15:03 59.89062 -1.11395 1831 ft 128 kts 266°
2026-04-24 15:04 59.88961 -1.13249 1583 ft 138 kts 266°
2026-04-24 15:04 59.88859 -1.15096 1428 ft 132 kts 266°
2026-04-24 15:04 59.88760 -1.16905 1257 ft 131 kts 266°
2026-04-24 15:04 59.88660 -1.18715 1065 ft 132 kts 266°
2026-04-24 15:05 59.88561 -1.20519 884 ft 131 kts 265°
2026-04-24 15:05 59.88463 -1.22289 745 ft 128 kts 266°
2026-04-24 15:05 59.88372 -1.24085 461 ft 130 kts 268°
2026-04-24 15:05 59.88315 -1.25826 271 ft 121 kts 267°
2026-04-24 15:06 59.88254 -1.27455 126 ft 117 kts 265°
2026-04-24 15:06 59.88167 -1.29038 44 ft 104 kts 263°
2026-04-24 15:06 59.88108 -1.30077 44 ft 51 kts 264°
2026-04-24 15:06 59.88070 -1.30524 44 ft 20 kts 258°
2026-04-24 15:07 59.88069 -1.30626 44 ft 2 kts 345°
2026-04-24 15:07 59.88079 -1.30591 42 ft 4 kts 84°
2026-04-24 15:07 59.88084 -1.30501 44 ft 8 kts 84°
2026-04-24 15:07 59.88091 -1.30362 44 ft 12 kts 84°
2026-04-24 15:08 59.88102 -1.30176 44 ft 15 kts 81°
2026-04-24 15:08 59.88107 -1.29959 45 ft 16 kts 113°
2026-04-24 15:08 59.88016 -1.29803 42 ft 20 kts 142°
2026-04-24 15:08 59.87905 -1.29637 42 ft 19 kts 142°
2026-04-24 15:09 59.87808 -1.29493 45 ft 17 kts 143°
2026-04-24 15:09 59.87703 -1.29336 42 ft 20 kts 143°
2026-04-24 15:09 59.87595 -1.29151 42 ft 18 kts 108°
2026-04-24 15:09 59.87603 -1.29017 40 ft 8 kts 79°
2026-04-24 15:10 59.87612 -1.28920 42 ft 7 kts 72°
2026-04-24 15:10 59.87647 -1.28886 42 ft 6 kts
2026-04-24 15:10 59.87674 -1.28857 41 ft 2 kts 81°
2026-04-24 15:10 59.87673 -1.28842 42 ft 2 kts 92°
2026-04-24 15:11 59.87673 -1.28840 42 ft 0 kts 93°
2026-04-24 15:11 59.87678 -1.28832 42 ft 0 kts 120°